DRMIKE Weather Reports


Display with metric or nautical units.
time (UTC)temp
F
wind
direction
speed
MPH
gust
MPH
rain 1hr
in
rain 24hr
in
rain mn
in
humidity
%
barometer
mb
20260507110105 50 0 0.0 0.0 0.01 0.09 0.05 90 1007.3
20260507104614 50 0 0.0 0.0 0.01 0.09 0.05 90 1007.2
20260507103100 50 0 0.0 0.0 0.02 0.09 0.05 90 1006.6
20260507101600 50 0 0.0 0.0 0.04 0.09 0.05 89 1006.9
20260507100101 50 0 0.0 0.0 0.03 0.08 0.04 89 1006.4
20260507094620 51 0 0.0 1.0 0.03 0.08 0.04 88 1006.6
20260507093100 51 0 0.0 0.0 0.02 0.07 0.03 88 1006.6
20260507091600 51 0 0.0 4.0 0.00 0.05 0.01 88 1006.7
20260507090101 51 0 0.0 1.0 0.00 0.05 0.01 88 1006.7
20260507084602 52 0 0.0 0.0 0.01 0.05 0.01 87 1006.4
20260507083100 52 0 0.0 2.0 0.01 0.05 0.01 87 1006.2
20260507081558 52 0 0.0 3.0 0.01 0.05 0.01 86 1006.2
20260507074558 53 0 0.0 4.0 0.00 0.04 0.00 86 1006.2
20260507073110 54 0 0.0 3.0 0.00 0.04 0.00 86 1005.7
20260507071600 54 0 0.0 2.0 0.00 0.04 0.00 87 1005.8
20260507070110 54 0 0.0 2.0 0.00 0.04 0.00 86 1005.5
20260507064606 55 0 0.0 3.0 0.00 0.04 0.00 87 1005.7
20260507063059 56 348 0.0 3.0 0.00 0.04 0.00 88 1005.5
20260507061559 56 0 0.0 3.0 0.00 0.04 0.00 90 1005.6
20260507060100 57 0 0.0 4.0 0.00 0.04 0.00 90 1005.6
20260507054600 57 0 0.0 2.0 0.00 0.04 0.00 90 1005.8
20260507053100 57 0 0.0 4.0 0.00 0.04 0.00 90 1005.6
20260507051608 58 0 0.0 4.0 0.00 0.04 0.00 91 1005.6
20260507050110 58 0 0.0 4.0 0.00 0.04 0.00 91 1005.7
20260507044600 59 0 0.0 5.0 0.00 0.04 0.00 93 1005.4
20260507043100 60 271 0.0 3.0 0.00 0.04 0.00 94 1005.6
20260507041601 60 0 0.0 4.0 0.00 0.04 0.00 94 1005.4
20260507040106 60 0 0.0 6.0 0.00 0.04 0.00 94 1005.5
20260507034605 60 0 0.0 3.0 0.00 0.04 0.04 94 1005.5
20260507033103 60 0 0.0 4.0 0.00 0.04 0.04 94 1005.4
20260507031604 60 0 0.0 0.0 0.00 0.04 0.04 94 1005.0
20260507024601 59 0 0.0 5.0 0.00 0.04 0.04 94 1005.0
20260507023057 59 0 0.0 7.0 0.00 0.04 0.04 94 1005.2
20260507021616 59 0 0.0 4.0 0.00 0.04 0.04 94 1005.0
20260507020059 59 0 0.0 3.0 0.00 0.04 0.04 94 1005.2
20260507014601 59 0 0.0 4.0 0.00 0.04 0.04 94 1005.2
20260507013100 59 0 0.0 9.0 0.00 0.04 0.04 94 1005.3
20260507011605 58 155 0.0 7.0 0.00 0.04 0.04 94 1005.4
20260507004559 58 0 0.0 4.0 0.01 0.04 0.04 93 1005.3
20260507003059 58 0 0.0 5.0 0.02 0.04 0.04 93 1005.5
20260507001606 58 0 0.0 5.0 0.02 0.04 0.04 93 1005.3
20260507000101 58 0 1.0 7.0 0.02 0.04 0.04 93 1005.3
20260506234624 58 244 1.0 9.0 0.01 0.03 0.03 92 1005.3
20260506233100 59 167 0.0 8.0 0.00 0.02 0.02 92 1005.2
20260506231559 59 174 1.0 9.0 0.00 0.02 0.02 91 1005.4
20260506230100 59 180 2.0 9.0 0.01 0.02 0.02 91 1005.5
20260506224556 60 179 2.0 13.0 0.01 0.02 0.02 91 1005.5
20260506223101 60 197 2.0 10.0 0.01 0.02 0.02 90 1005.6
20260506221557 61 127 0.0 8.0 0.01 0.02 0.02 89 1005.7
20260506220058 61 0 1.0 9.0 0.00 0.01 0.01 89 1006.0
20260506214557 61 0 1.0 9.0 0.00 0.01 0.01 88 1006.0
20260506213057 61 193 1.0 9.0 0.01 0.01 0.01 88 1006.1
20260506211557 61 0 0.0 4.0 0.01 0.01 0.01 87 1006.2
20260506210058 62 0 0.0 11.0 0.01 0.01 0.01 86 1006.4
20260506204601 62 141 0.0 9.0 0.01 0.01 0.01 83 1006.4
20260506203059 63 0 1.0 7.0 0.00 0.00 0.00 82 1006.4
20260506201600 63 0 0.0 10.0 0.00 0.00 0.00 82 1006.2
20260506200113 64 171 2.0 9.0 0.00 0.00 0.00 81 1006.2
20260506194619 64 195 2.0 16.0 0.00 0.00 0.00 78 1006.6
20260506193058 65 0 1.0 11.0 0.00 0.00 0.00 75 1006.5
20260506191559 66 182 1.0 12.0 0.00 0.00 0.00 72 1006.4
20260506190101 67 169 4.0 12.0 0.00 0.00 0.00 70 1006.5
20260506184611 67 163 4.0 12.0 0.00 0.00 0.00 68 1006.5
20260506183107 68 198 2.0 9.0 0.00 0.00 0.00 67 1006.6
20260506181602 68 188 2.0 15.0 0.00 0.00 0.00 67 1006.6
20260506174603 70 140 3.0 14.0 0.00 0.00 0.00 65 1007.1
20260506173116 70 0 3.0 10.0 0.00 0.00 0.00 65 1007.0
20260506171602 68 180 2.0 11.0 0.00 0.00 0.00 67 1007.1
20260506170058 68 192 2.0 11.0 0.00 0.00 0.00 68 1007.4
20260506164602 69 141 4.0 12.0 0.00 0.00 0.00 66 1007.4
20260506163106 69 192 2.0 13.0 0.00 0.00 0.00 66 1007.6
20260506161607 69 188 4.0 11.0 0.00 0.00 0.00 66 1007.9
20260506154601 71 134 3.0 14.0 0.00 0.00 0.00 64 1008.3
20260506153101 72 204 2.0 16.0 0.00 0.00 0.00 63 1008.5
20260506151609 71 161 4.0 16.0 0.00 0.00 0.00 65 1008.5
20260506150107 70 163 2.0 11.0 0.00 0.00 0.00 66 1008.8
20260506144619 69 210 3.0 13.0 0.00 0.00 0.00 68 1008.6
20260506143103 68 178 3.0 10.0 0.00 0.00 0.00 69 1008.6
20260506141558 67 183 2.0 12.0 0.00 0.00 0.00 71 1008.7
20260506140111 67 193 1.0 9.0 0.00 0.00 0.00 72 1008.9
20260506134559 67 0 1.0 9.0 0.00 0.00 0.00 73 1009.2
20260506133059 66 107 2.0 10.0 0.00 0.00 0.00 73 1009.2
20260506131600 66 194 1.0 9.0 0.00 0.00 0.00 75 1009.1
20260506130136 65 167 3.0 12.0 0.00 0.00 0.00 76 1009.3
20260506124559 63 0 0.0 7.0 0.00 0.00 0.00 79 1009.5
20260506123059 63 0 0.0 9.0 0.00 0.00 0.00 80 1009.4
20260506121602 62 0 2.0 9.0 0.00 0.00 0.00 80 1009.1
20260506114628 62 0 1.0 10.0 0.00 0.00 0.00 80 1009.7
20260506113107 62 209 1.0 7.0 0.00 0.00 0.00 81 1009.6
20260506111600 61 161 0.0 5.0 0.00 0.00 0.00 82 1009.6